• In Czech Republic
  • List of Countries
  • For 7 days
  • Water Temperature
  • Satellite Maps
  • Weather Map
  • Weather Widgets
  • user-avatar
    Login

    Hourly Weather Wojponie

    Today, 21 September, Friday

    Time Temperature Precipitation Wind Pressure Humidity
    00:00 +19°C° 0 mm 3 mps 745 mmHg 71%
    01:00 +18°C° 0 mm 2 mps 745 mmHg 73%
    02:00 +18°C° 0 mm 2 mps 745 mmHg 75%
    03:00 +18°C° 0 mm 2 mps 745 mmHg 75%
    04:00 +17°C° 0 mm 2 mps 745 mmHg 76%
    05:00 +17°C° 0 mm 2 mps 745 mmHg 77%
    06:00 +18°C° 0 mm 3 mps 745 mmHg 75%
    07:00 +18°C° 0 mm 3 mps 744 mmHg 73%
    08:00 +19°C° 0 mm 3 mps 744 mmHg 70%
    09:00 +21°C° 0 mm 4 mps 744 mmHg 65%
    10:00 +23°C° 0 mm 4 mps 744 mmHg 59%
    11:00 +26°C° 0 mm 5 mps 744 mmHg 53%
    12:00 +26°C° 0 mm 5 mps 744 mmHg 50%
    13:00 +27°C° 0 mm 5 mps 743 mmHg 47%
    14:00 +27°C° 0 mm 5 mps 743 mmHg 43%
    15:00 +27°C° 0 mm 5 mps 742 mmHg 46%
    16:00 +26°C° 0 mm 5 mps 741 mmHg 49%
    17:00 +25°C° 0 mm 4 mps 741 mmHg 52%
    18:00 +23°C° 0 mm 5 mps 740 mmHg 54%
    19:00 +22°C° 0 mm 5 mps 740 mmHg 55%
    20:00 +20°C° 0 mm 5 mps 739 mmHg 56%
    21:00 +20°C° 0 mm 6 mps 739 mmHg 56%
    22:00 +20°C° 0 mm 6 mps 739 mmHg 56%
    23:00 +20°C° 0 mm 6 mps 738 mmHg 57%

    Tomorrow, 22 September, Saturday

    Time Temperature Precipitation Wind Pressure Humidity
    00:00 +20°C° 0 mm 6 mps 738 mmHg 59%
    01:00 +19°C° 0 mm 6 mps 738 mmHg 62%
    02:00 +17°C° 0 mm 5 mps 738 mmHg 65%
    03:00 +16°C° 0.7 mm 5 mps 739 mmHg 72%
    04:00 +14°C° 0.7 mm 5 mps 739 mmHg 80%
    05:00 +12°C° 0.7 mm 5 mps 739 mmHg 87%
    06:00 +12°C° 0.9 mm 5 mps 740 mmHg 86%
    07:00 +12°C° 0.9 mm 5 mps 741 mmHg 85%
    08:00 +10°C° 0.9 mm 5 mps 741 mmHg 84%
    09:00 +12°C° 0 mm 5 mps 742 mmHg 79%
    10:00 +12°C° 0 mm 5 mps 742 mmHg 74%
    11:00 +12°C° 0 mm 5 mps 742 mmHg 68%
    12:00 +13°C° 0 mm 6 mps 742 mmHg 64%
    13:00 +14°C° 0 mm 6 mps 742 mmHg 60%
    14:00 +15°C° 0 mm 6 mps 742 mmHg 55%
    15:00 +14°C° 0.2 mm 5 mps 742 mmHg 59%
    16:00 +14°C° 0.2 mm 5 mps 742 mmHg 62%
    17:00 +13°C° 0.2 mm 4 mps 742 mmHg 65%
    18:00 +12°C° 0.1 mm 4 mps 742 mmHg 71%
    19:00 +11°C° 0.1 mm 3 mps 742 mmHg 77%
    20:00 +9°C° 0.1 mm 3 mps 742 mmHg 82%
    21:00 +9°C° 0 mm 3 mps 742 mmHg 83%
    22:00 +9°C° 0 mm 3 mps 742 mmHg 84%
    23:00 +8°C° 0 mm 3 mps 742 mmHg 84%

    Day after tomorrow, 23 September, Sunday

    Time Temperature Precipitation Wind Pressure Humidity
    00:00 +8°C° 0 mm 3 mps 742 mmHg 85%
    01:00 +7°C° 0 mm 4 mps 742 mmHg 85%
    02:00 +7°C° 0 mm 4 mps 742 mmHg 85%
    03:00 +7°C° 0 mm 4 mps 742 mmHg 85%
    04:00 +7°C° 0 mm 4 mps 742 mmHg 86%
    05:00 +7°C° 0 mm 4 mps 741 mmHg 86%
    06:00 +7°C° 0 mm 5 mps 741 mmHg 83%
    07:00 +8°C° 0 mm 6 mps 741 mmHg 81%
    08:00 +8°C° 0 mm 7 mps 741 mmHg 78%
    09:00 +9°C° 0 mm 7 mps 742 mmHg 74%
    10:00 +10°C° 0 mm 7 mps 742 mmHg 70%
    11:00 +11°C° 0 mm 7 mps 742 mmHg 67%
    12:00 +11°C° 0.2 mm 7 mps 742 mmHg 66%
    13:00 +12°C° 0.2 mm 7 mps 742 mmHg 65%
    14:00 +12°C° 0.2 mm 7 mps 742 mmHg 65%
    15:00 +12°C° 0.2 mm 7 mps 742 mmHg 66%
    16:00 +13°C° 0.2 mm 6 mps 742 mmHg 67%
    17:00 +12°C° 0.2 mm 5 mps 742 mmHg 68%
    18:00 +11°C° 0.1 mm 4 mps 742 mmHg 73%
    19:00 +10°C° 0.1 mm 3 mps 742 mmHg 78%
    20:00 +9°C° 0.1 mm 2 mps 742 mmHg 83%
    21:00 +9°C° 0 mm 2 mps 742 mmHg 83%
    22:00 +8°C° 0 mm 3 mps 741 mmHg 83%
    23:00 +8°C° 0 mm 3 mps 741 mmHg 83%

    24 September, Monday

    Time Temperature Precipitation Wind Pressure Humidity
    00:00 +8°C° 0 mm 3 mps 740 mmHg 81%
    01:00 +8°C° 0 mm 2 mps 740 mmHg 79%
    02:00 +8°C° 0 mm 2 mps 739 mmHg 77%
    03:00 +8°C° 0.3 mm 3 mps 738 mmHg 78%
    04:00 +8°C° 0.3 mm 3 mps 737 mmHg 80%
    05:00 +7°C° 0.3 mm 4 mps 735 mmHg 82%
    06:00 +7°C° 1.6 mm 5 mps 734 mmHg 85%
    07:00 +7°C° 1.6 mm 6 mps 732 mmHg 88%
    08:00 +7°C° 1.6 mm 6 mps 730 mmHg 92%
    09:00 +6°C° 3.1 mm 7 mps 729 mmHg 92%
    10:00 +8°C° 3.1 mm 7 mps 727 mmHg 92%
    11:00 +8°C° 3.1 mm 7 mps 725 mmHg 93%
    12:00 +9°C° 2.5 mm 7 mps 724 mmHg 92%
    13:00 +10°C° 2.5 mm 6 mps 723 mmHg 90%
    14:00 +11°C° 2.5 mm 6 mps 722 mmHg 89%
    15:00 +10°C° 0.8 mm 7 mps 723 mmHg 89%
    16:00 +9°C° 0.8 mm 8 mps 723 mmHg 90%
    17:00 +7°C° 0.8 mm 9 mps 724 mmHg 90%
    18:00 +6°C° 1.4 mm 10 mps 725 mmHg 89%
    19:00 +6°C° 1.4 mm 11 mps 727 mmHg 88%
    20:00 +4°C° 1.4 mm 12 mps 728 mmHg 87%
    21:00 +4°C° 0.7 mm 12 mps 730 mmHg 86%
    22:00 +4°C° 0.7 mm 12 mps 732 mmHg 84%
    23:00 +4°C° 0.7 mm 12 mps 734 mmHg 83%

    25 September, Tuesday

    Time Temperature Precipitation Wind Pressure Humidity
    00:00 +4°C° 0.2 mm 11 mps 735 mmHg 82%
    01:00 +5°C° 0.2 mm 10 mps 736 mmHg 81%
    02:00 +5°C° 0.2 mm 10 mps 738 mmHg 80%
    03:00 +3°C° 0 mm 9 mps 739 mmHg 78%
    04:00 +3°C° 0 mm 9 mps 740 mmHg 77%
    05:00 +4°C° 0 mm 8 mps 741 mmHg 75%
    06:00 +4°C° 0 mm 8 mps 742 mmHg 72%
    07:00 +4°C° 0 mm 8 mps 743 mmHg 69%
    08:00 +5°C° 0 mm 8 mps 744 mmHg 66%
    09:00 +6°C° 0 mm 9 mps 744 mmHg 61%
    10:00 +7°C° 0 mm 9 mps 745 mmHg 56%
    11:00 +9°C° 0 mm 10 mps 745 mmHg 51%
    12:00 +10°C° 0 mm 9 mps 745 mmHg 50%
    13:00 +10°C° 0 mm 9 mps 745 mmHg 49%
    14:00 +11°C° 0 mm 9 mps 745 mmHg 48%
    15:00 +10°C° 0 mm 7 mps 745 mmHg 52%
    16:00 +10°C° 0 mm 6 mps 744 mmHg 56%
    17:00 +10°C° 0 mm 4 mps 744 mmHg 60%
    18:00 +8°C° 1.3 mm 4 mps 743 mmHg 70%
    19:00 +7°C° 1.3 mm 4 mps 743 mmHg 80%
    20:00 +6°C° 1.3 mm 4 mps 742 mmHg 90%
    21:00 +6°C° 0.8 mm 4 mps 742 mmHg 91%
    22:00 +7°C° 0.8 mm 3 mps 742 mmHg 92%
    23:00 +7°C° 0.8 mm 3 mps 742 mmHg 93%

    26 September, Wednesday

    Time Temperature Precipitation Wind Pressure Humidity
    00:00 +5°C° 0.3 mm 3 mps 743 mmHg 93%
    01:00 +5°C° 0.3 mm 4 mps 743 mmHg 93%
    02:00 +5°C° 0.3 mm 4 mps 744 mmHg 93%
    03:00 +5°C° 0 mm 4 mps 745 mmHg 93%
    04:00 +4°C° 0 mm 3 mps 746 mmHg 94%
    05:00 +4°C° 0 mm 3 mps 746 mmHg 94%
    06:00 +4°C° 0 mm 3 mps 747 mmHg 93%
    07:00 +5°C° 0 mm 3 mps 748 mmHg 92%
    08:00 +5°C° 0 mm 3 mps 749 mmHg 91%
    09:00 +7°C° 0 mm 4 mps 749 mmHg 83%
    10:00 +8°C° 0 mm 4 mps 749 mmHg 76%
    11:00 +10°C° 0 mm 5 mps 750 mmHg 69%
    12:00 +10°C° 0.1 mm 5 mps 750 mmHg 68%
    13:00 +10°C° 0.1 mm 5 mps 750 mmHg 66%
    14:00 +12°C° 0.1 mm 5 mps 750 mmHg 65%
    15:00 +10°C° 0.1 mm 5 mps 750 mmHg 68%
    16:00 +11°C° 0.1 mm 4 mps 750 mmHg 70%
    17:00 +11°C° 0.1 mm 4 mps 751 mmHg 72%
    18:00 +10°C° 0 mm 3 mps 751 mmHg 77%
    19:00 +8°C° 0 mm 3 mps 751 mmHg 82%
    20:00 +7°C° 0 mm 2 mps 752 mmHg 87%
    21:00 +7°C° 0 mm 2 mps 752 mmHg 88%
    22:00 +6°C° 0 mm 2 mps 752 mmHg 89%
    23:00 +6°C° 0 mm 2 mps 752 mmHg 90%
    Show more